| time (UTC) | temp C | wind direction | speed KPH | gust KPH | rain 1hr cm | rain 24hr cm | rain mn cm | humidity % | barometer mb |
| 20260509032014 | 21 | 0 | 0.0 | 0.0 | 0.00 | 0.03 | 0.03 | 99 | 1013.9 |
| 20260509031534 | 21 | 0 | 0.0 | 0.0 | 0.00 | 0.03 | 0.03 | 99 | 1013.9 |
| 20260509031015 | 21 | 0 | 0.0 | 0.0 | 0.00 | 0.03 | 0.03 | 99 | 1013.9 |
| 20260509030518 | 21 | 0 | 0.0 | 0.0 | 0.00 | 0.03 | 0.03 | 99 | 1014.0 |
| 20260509030035 | 21 | 0 | 0.0 | 0.0 | 0.00 | 0.03 | 0.03 | 99 | 1014.0 |
| 20260509025514 | 21 | 0 | 0.0 | 0.0 | 0.00 | 0.03 | 0.03 | 99 | 1014.1 |
| 20260509025014 | 21 | 0 | 0.0 | 0.0 | 0.00 | 0.03 | 0.03 | 99 | 1014.0 |
| 20260509024539 | 21 | 0 | 0.0 | 0.0 | 0.00 | 0.03 | 0.03 | 99 | 1013.8 |
| 20260509024021 | 21 | 0 | 0.0 | 0.0 | 0.00 | 0.03 | 0.03 | 99 | 1013.8 |
| 20260509023515 | 21 | 0 | 0.0 | 0.0 | 0.00 | 0.03 | 0.03 | 99 | 1013.8 |
| 20260509023036 | 21 | 0 | 0.0 | 0.0 | 0.00 | 0.03 | 0.03 | 98 | 1013.7 |
| 20260509022514 | 21 | 0 | 0.0 | 0.0 | 0.00 | 0.03 | 0.03 | 99 | 1013.5 |
| 20260509022017 | 21 | 0 | 0.0 | 0.0 | 0.00 | 0.03 | 0.03 | 99 | 1013.5 |
| 20260509021534 | 21 | 0 | 0.0 | 0.0 | 0.00 | 0.03 | 0.03 | 99 | 1013.6 |
| 20260509021017 | 21 | 0 | 0.0 | 0.0 | 0.00 | 0.03 | 0.03 | 99 | 1013.6 |
| 20260509020514 | 21 | 0 | 0.0 | 0.0 | 0.00 | 0.03 | 0.03 | 99 | 1013.5 |
| 20260509020031 | 21 | 0 | 0.0 | 0.0 | 0.00 | 0.03 | 0.03 | 99 | 1013.4 |
| 20260509015514 | 21 | 0 | 0.0 | 0.0 | 0.00 | 0.03 | 0.03 | 99 | 1013.4 |
| 20260509015019 | 21 | 0 | 0.0 | 0.0 | 0.00 | 0.03 | 0.03 | 99 | 1013.3 |
| 20260509014532 | 21 | 0 | 0.0 | 0.0 | 0.00 | 0.03 | 0.03 | 99 | 1013.4 |
| 20260509014015 | 21 | 0 | 0.0 | 0.0 | 0.00 | 0.03 | 0.03 | 98 | 1013.4 |
| 20260509013515 | 21 | 0 | 0.0 | 0.0 | 0.00 | 0.03 | 0.03 | 99 | 1013.3 |
| 20260509013041 | 21 | 0 | 0.0 | 0.0 | 0.00 | 0.03 | 0.03 | 99 | 1013.5 |
| 20260509012512 | 21 | 0 | 0.0 | 0.0 | 0.00 | 0.03 | 0.03 | 99 | 1013.5 |
| 20260509012017 | 21 | 0 | 0.0 | 0.0 | 0.00 | 0.03 | 0.03 | 98 | 1013.6 |
| 20260509011531 | 21 | 0 | 0.0 | 0.0 | 0.00 | 0.03 | 0.03 | 98 | 1013.3 |
| 20260509011013 | 21 | 0 | 0.0 | 0.0 | 0.00 | 0.03 | 0.03 | 98 | 1013.1 |
| 20260509010513 | 21 | 0 | 0.0 | 0.0 | 0.00 | 0.03 | 0.03 | 98 | 1012.9 |
| 20260509010036 | 21 | 0 | 0.0 | 0.0 | 0.00 | 0.03 | 0.03 | 98 | 1012.8 |
| 20260509005513 | 21 | 0 | 0.0 | 0.0 | 0.00 | 0.03 | 0.03 | 98 | 1012.8 |
| 20260509005014 | 21 | 0 | 0.0 | 0.0 | 0.00 | 0.03 | 0.03 | 97 | 1012.7 |
| 20260509004543 | 21 | 0 | 0.0 | 0.0 | 0.00 | 0.03 | 0.03 | 97 | 1012.5 |
| 20260509004012 | 21 | 0 | 0.0 | 0.0 | 0.00 | 0.03 | 0.03 | 97 | 1012.5 |
| 20260509003515 | 21 | 0 | 0.0 | 0.0 | 0.03 | 0.03 | 0.03 | 97 | 1012.5 |
| 20260509003034 | 21 | 0 | 0.0 | 0.0 | 0.03 | 0.03 | 0.03 | 97 | 1012.5 |
| 20260509002514 | 22 | 0 | 0.0 | 3.2 | 0.03 | 0.03 | 0.03 | 96 | 1012.4 |
| 20260509002014 | 22 | 0 | 0.0 | 3.2 | 0.03 | 0.03 | 0.03 | 96 | 1012.5 |
| 20260509001533 | 22 | 26 | 0.0 | 3.2 | 0.03 | 0.03 | 0.03 | 96 | 1012.5 |
| 20260509001014 | 22 | 316 | 0.0 | 3.2 | 0.03 | 0.03 | 0.03 | 96 | 1012.4 |
| 20260509000514 | 22 | 7 | 0.0 | 3.2 | 0.03 | 0.03 | 0.03 | 95 | 1012.4 |
| 20260509000040 | 22 | 357 | 0.0 | 4.8 | 0.03 | 0.03 | 0.03 | 95 | 1012.5 |
| 20260508235513 | 22 | 256 | 0.0 | 6.4 | 0.03 | 0.03 | 0.03 | 93 | 1012.8 |
| 20260508235013 | 22 | 13 | 1.6 | 6.4 | 0.03 | 0.03 | 0.03 | 92 | 1012.3 |
| 20260508234530 | 23 | 351 | 0.0 | 8.0 | 0.03 | 0.03 | 0.03 | 90 | 1012.5 |
| 20260508234012 | 23 | 37 | 1.6 | 8.0 | 0.00 | 0.00 | 0.00 | 87 | 1012.3 |
| 20260508233521 | 24 | 23 | 1.6 | 8.0 | 0.00 | 0.00 | 0.00 | 84 | 1012.1 |
| 20260508233034 | 25 | 42 | 1.6 | 8.0 | 0.00 | 0.00 | 0.00 | 83 | 1012.3 |
| 20260508232514 | 25 | 4 | 1.6 | 9.7 | 0.00 | 0.00 | 0.00 | 83 | 1011.8 |
| 20260508232014 | 25 | 288 | 1.6 | 9.7 | 0.00 | 0.00 | 0.00 | 83 | 1011.8 |
| 20260508231538 | 25 | 18 | 3.2 | 9.7 | 0.00 | 0.00 | 0.00 | 83 | 1011.7 |
| 20260508231019 | 26 | 36 | 3.2 | 16.1 | 0.00 | 0.00 | 0.00 | 83 | 1011.6 |
| 20260508230515 | 26 | 51 | 4.8 | 16.1 | 0.00 | 0.00 | 0.00 | 83 | 1011.6 |
| 20260508230031 | 27 | 25 | 4.8 | 12.9 | 0.00 | 0.00 | 0.00 | 81 | 1011.5 |
| 20260508225513 | 28 | 44 | 1.6 | 8.0 | 0.00 | 0.00 | 0.00 | 79 | 1011.5 |
| 20260508225013 | 28 | 0 | 0.0 | 4.8 | 0.00 | 0.00 | 0.00 | 79 | 1011.3 |
| 20260508224555 | 28 | 201 | 0.0 | 9.7 | 0.00 | 0.00 | 0.00 | 79 | 1010.9 |
| 20260508224013 | 28 | 11 | 3.2 | 9.7 | 0.00 | 0.00 | 0.00 | 78 | 1010.8 |
| 20260508223514 | 28 | 140 | 1.6 | 11.3 | 0.00 | 0.00 | 0.00 | 78 | 1010.5 |
| 20260508223030 | 28 | 53 | 3.2 | 11.3 | 0.00 | 0.00 | 0.00 | 78 | 1010.3 |
| 20260508222513 | 29 | 355 | 1.6 | 9.7 | 0.00 | 0.00 | 0.00 | 78 | 1010.2 |
| 20260508222013 | 29 | 359 | 3.2 | 12.9 | 0.00 | 0.00 | 0.00 | 77 | 1010.2 |
| 20260508221539 | 29 | 272 | 1.6 | 12.9 | 0.00 | 0.00 | 0.00 | 77 | 1010.5 |
| 20260508221016 | 29 | 25 | 4.8 | 12.9 | 0.00 | 0.00 | 0.00 | 76 | 1010.4 |
| 20260508220519 | 29 | 353 | 3.2 | 11.3 | 0.00 | 0.00 | 0.00 | 77 | 1010.5 |
| 20260508220036 | 30 | 308 | 3.2 | 11.3 | 0.00 | 0.00 | 0.00 | 76 | 1010.0 |
| 20260508215514 | 30 | 56 | 1.6 | 9.7 | 0.00 | 0.00 | 0.00 | 77 | 1009.8 |
| 20260508215019 | 30 | 305 | 4.8 | 9.7 | 0.00 | 0.00 | 0.00 | 76 | 1010.0 |
| 20260508214539 | 30 | 6 | 3.2 | 9.7 | 0.00 | 0.00 | 0.00 | 76 | 1010.2 |
| 20260508214013 | 30 | 352 | 3.2 | 16.1 | 0.00 | 0.00 | 0.00 | 75 | 1010.1 |
| 20260508213513 | 30 | 15 | 3.2 | 16.1 | 0.00 | 0.00 | 0.00 | 75 | 1010.2 |
| 20260508213035 | 31 | 36 | 3.2 | 9.7 | 0.00 | 0.00 | 0.00 | 73 | 1010.3 |
| 20260508212514 | 31 | 2 | 3.2 | 8.0 | 0.00 | 0.00 | 0.00 | 73 | 1010.2 |
| 20260508212015 | 31 | 278 | 1.6 | 11.3 | 0.00 | 0.00 | 0.00 | 74 | 1010.2 |
| 20260508211533 | 31 | 72 | 4.8 | 11.3 | 0.00 | 0.00 | 0.00 | 74 | 1010.1 |
| 20260508211015 | 31 | 345 | 3.2 | 11.3 | 0.00 | 0.00 | 0.00 | 72 | 1010.2 |
| 20260508210513 | 31 | 53 | 3.2 | 11.3 | 0.00 | 0.00 | 0.00 | 74 | 1010.1 |
| 20260508210033 | 31 | 0 | 1.6 | 11.3 | 0.00 | 0.00 | 0.00 | 74 | 1010.2 |
| 20260508205513 | 31 | 13 | 3.2 | 11.3 | 0.00 | 0.00 | 0.00 | 74 | 1010.3 |
| 20260508205015 | 30 | 54 | 3.2 | 11.3 | 0.00 | 0.00 | 0.00 | 75 | 1010.3 |
| 20260508204535 | 30 | 37 | 3.2 | 12.9 | 0.00 | 0.00 | 0.00 | 75 | 1010.3 |
| 20260508204013 | 31 | 58 | 4.8 | 12.9 | 0.00 | 0.00 | 0.00 | 73 | 1010.3 |
| 20260508203522 | 31 | 15 | 3.2 | 8.0 | 0.00 | 0.00 | 0.00 | 72 | 1010.1 |
| 20260508203035 | 31 | 252 | 0.0 | 9.7 | 0.00 | 0.00 | 0.00 | 70 | 1010.1 |
| 20260508202515 | 32 | 0 | 3.2 | 9.7 | 0.00 | 0.00 | 0.00 | 69 | 1010.1 |
| 20260508202016 | 32 | 328 | 1.6 | 8.0 | 0.00 | 0.00 | 0.00 | 69 | 1010.3 |
| 20260508201537 | 32 | 17 | 1.6 | 6.4 | 0.00 | 0.00 | 0.00 | 70 | 1010.2 |
| 20260508201014 | 31 | 330 | 1.6 | 6.4 | 0.00 | 0.00 | 0.00 | 70 | 1010.3 |
| 20260508200514 | 31 | 0 | 0.0 | 6.4 | 0.00 | 0.00 | 0.00 | 71 | 1010.6 |
| 20260508200044 | 31 | 299 | 1.6 | 6.4 | 0.00 | 0.00 | 0.00 | 70 | 1010.7 |
| 20260508195516 | 31 | 59 | 1.6 | 6.4 | 0.00 | 0.00 | 0.00 | 70 | 1010.7 |
| 20260508195014 | 31 | 349 | 1.6 | 4.8 | 0.00 | 0.00 | 0.00 | 70 | 1010.9 |
| 20260508194531 | 31 | 255 | 0.0 | 3.2 | 0.00 | 0.00 | 0.00 | 68 | 1011.0 |
| 20260508194015 | 32 | 299 | 0.0 | 3.2 | 0.00 | 0.00 | 0.00 | 66 | 1011.0 |
| 20260508193511 | 32 | 0 | 0.0 | 4.8 | 0.00 | 0.00 | 0.00 | 66 | 1011.1 |
| 20260508193037 | 32 | 65 | 0.0 | 9.7 | 0.00 | 0.00 | 0.00 | 66 | 1011.2 |
| 20260508192520 | 32 | 21 | 1.6 | 9.7 | 0.00 | 0.00 | 0.00 | 65 | 1011.3 |
| 20260508192016 | 32 | 37 | 0.0 | 4.8 | 0.00 | 0.00 | 0.00 | 66 | 1011.3 |
| 20260508191535 | 32 | 309 | 0.0 | 9.7 | 0.00 | 0.00 | 0.00 | 66 | 1011.4 |
| 20260508191016 | 32 | 324 | 3.2 | 9.7 | 0.00 | 0.00 | 0.00 | 66 | 1011.5 |
| 20260508190517 | 33 | 18 | 3.2 | 11.3 | 0.00 | 0.00 | 0.00 | 64 | 1011.6 |
| 20260508190033 | 33 | 42 | 3.2 | 11.3 | 0.00 | 0.00 | 0.00 | 64 | 1011.6 |
| 20260508185516 | 33 | 124 | 0.0 | 8.0 | 0.00 | 0.00 | 0.00 | 64 | 1011.7 |
| 20260508185015 | 33 | 67 | 3.2 | 8.0 | 0.00 | 0.00 | 0.00 | 62 | 1011.9 |
| 20260508184536 | 33 | 220 | 0.0 | 6.4 | 0.00 | 0.00 | 0.00 | 60 | 1011.8 |
| 20260508184018 | 33 | 131 | 1.6 | 6.4 | 0.00 | 0.00 | 0.00 | 59 | 1011.9 |
| 20260508183515 | 33 | 0 | 0.0 | 4.8 | 0.00 | 0.00 | 0.00 | 59 | 1012.0 |
| 20260508183031 | 33 | 0 | 1.6 | 6.4 | 0.00 | 0.00 | 0.00 | 58 | 1012.2 |
| 20260508182515 | 33 | 208 | 1.6 | 6.4 | 0.00 | 0.00 | 0.00 | 56 | 1012.3 |
| 20260508182015 | 33 | 0 | 1.6 | 4.8 | 0.00 | 0.00 | 0.00 | 57 | 1012.4 |
| 20260508181548 | 34 | 263 | 0.0 | 1.6 | 0.00 | 0.00 | 0.00 | 59 | 1012.4 |
| 20260508181017 | 33 | 200 | 0.0 | 6.4 | 0.00 | 0.00 | 0.00 | 60 | 1012.4 |
| 20260508180514 | 33 | 246 | 1.6 | 6.4 | 0.00 | 0.00 | 0.00 | 59 | 1012.6 |
| 20260508180034 | 34 | 236 | 0.0 | 3.2 | 0.00 | 0.00 | 0.00 | 57 | 1012.7 |
| 20260508175516 | 34 | 0 | 0.0 | 3.2 | 0.00 | 0.00 | 0.00 | 57 | 1012.8 |
| 20260508175016 | 33 | 126 | 0.0 | 4.8 | 0.00 | 0.00 | 0.00 | 60 | 1013.0 |
| 20260508174534 | 33 | 296 | 0.0 | 4.8 | 0.00 | 0.00 | 0.00 | 61 | 1013.0 |
| 20260508174019 | 33 | 238 | 0.0 | 4.8 | 0.00 | 0.00 | 0.00 | 61 | 1012.8 |
| 20260508173517 | 33 | 153 | 1.6 | 4.8 | 0.00 | 0.00 | 0.00 | 60 | 1012.9 |
| 20260508173036 | 32 | 204 | 1.6 | 4.8 | 0.00 | 0.00 | 0.00 | 63 | 1013.0 |
| 20260508172515 | 33 | 261 | 0.0 | 6.4 | 0.00 | 0.00 | 0.00 | 62 | 1013.2 |
| 20260508172015 | 32 | 234 | 1.6 | 6.4 | 0.00 | 0.00 | 0.00 | 63 | 1013.2 |
| 20260508171536 | 32 | 316 | 0.0 | 6.4 | 0.00 | 0.00 | 0.00 | 63 | 1013.3 |
| 20260508171019 | 32 | 0 | 0.0 | 6.4 | 0.00 | 0.00 | 0.00 | 64 | 1013.5 |
| 20260508170516 | 32 | 331 | 0.0 | 6.4 | 0.00 | 0.00 | 0.00 | 66 | 1013.6 |
| 20260508170032 | 32 | 0 | 1.6 | 6.4 | 0.00 | 0.00 | 0.00 | 65 | 1013.6 |
| 20260508165515 | 31 | 167 | 0.0 | 3.2 | 0.00 | 0.00 | 0.00 | 68 | 1013.7 |
| 20260508165017 | 31 | 184 | 0.0 | 4.8 | 0.00 | 0.00 | 0.00 | 69 | 1013.7 |
| 20260508164534 | 31 | 0 | 0.0 | 4.8 | 0.00 | 0.00 | 0.00 | 69 | 1013.8 |
| 20260508164016 | 31 | 207 | 0.0 | 3.2 | 0.00 | 0.00 | 0.00 | 67 | 1013.8 |
| 20260508163514 | 32 | 227 | 0.0 | 3.2 | 0.00 | 0.00 | 0.00 | 66 | 1013.9 |
| 20260508163034 | 32 | 12 | 0.0 | 3.2 | 0.00 | 0.00 | 0.00 | 68 | 1013.9 |
| 20260508162517 | 32 | 208 | 0.0 | 4.8 | 0.00 | 0.00 | 0.00 | 68 | 1014.0 |
| 20260508162016 | 32 | 0 | 0.0 | 4.8 | 0.00 | 0.00 | 0.00 | 68 | 1014.0 |
| 20260508161538 | 31 | 244 | 0.0 | 3.2 | 0.00 | 0.00 | 0.00 | 71 | 1014.1 |
| 20260508161017 | 31 | 338 | 0.0 | 3.2 | 0.00 | 0.00 | 0.00 | 71 | 1014.2 |
| 20260508160519 | 30 | 0 | 0.0 | 3.2 | 0.00 | 0.00 | 0.00 | 72 | 1014.3 |
| 20260508160036 | 30 | 2 | 1.6 | 3.2 | 0.00 | 0.00 | 0.00 | 71 | 1014.5 |
| 20260508155516 | 31 | 235 | 0.0 | 3.2 | 0.00 | 0.00 | 0.00 | 72 | 1014.5 |
| 20260508155015 | 30 | 0 | 0.0 | 3.2 | 0.00 | 0.00 | 0.00 | 72 | 1014.5 |
| 20260508154534 | 30 | 226 | 0.0 | 4.8 | 0.00 | 0.00 | 0.00 | 73 | 1014.5 |
| 20260508154013 | 30 | 359 | 0.0 | 6.4 | 0.00 | 0.00 | 0.00 | 74 | 1014.6 |
| 20260508153515 | 30 | 349 | 1.6 | 6.4 | 0.00 | 0.00 | 0.00 | 73 | 1014.7 |
| 20260508153035 | 30 | 315 | 3.2 | 6.4 | 0.00 | 0.00 | 0.00 | 73 | 1014.7 |
| 20260508152513 | 30 | 204 | 0.0 | 4.8 | 0.00 | 0.00 | 0.00 | 77 | 1014.7 |
| 20260508152016 | 30 | 169 | 1.6 | 6.4 | 0.00 | 0.00 | 0.00 | 75 | 1014.7 |
| 20260508151542 | 30 | 208 | 1.6 | 6.4 | 0.00 | 0.00 | 0.00 | 76 | 1014.8 |
| 20260508151019 | 30 | 32 | 0.0 | 3.2 | 0.00 | 0.00 | 0.00 | 77 | 1014.8 |
| 20260508150516 | 29 | 0 | 0.0 | 4.8 | 0.00 | 0.00 | 0.00 | 79 | 1014.9 |
| 20260508150039 | 28 | 29 | 0.0 | 4.8 | 0.00 | 0.00 | 0.00 | 79 | 1014.8 |
| 20260508145517 | 28 | 195 | 0.0 | 4.8 | 0.00 | 0.00 | 0.00 | 78 | 1014.8 |
| 20260508145018 | 28 | 0 | 0.0 | 6.4 | 0.00 | 0.00 | 0.00 | 79 | 1014.8 |
| 20260508144541 | 29 | 48 | 1.6 | 6.4 | 0.00 | 0.00 | 0.00 | 79 | 1014.7 |
| 20260508144017 | 29 | 30 | 0.0 | 3.2 | 0.00 | 0.00 | 0.00 | 79 | 1014.6 |
| 20260508143518 | 29 | 225 | 0.0 | 4.8 | 0.00 | 0.00 | 0.00 | 81 | 1014.6 |
| 20260508143038 | 28 | 0 | 0.0 | 6.4 | 0.00 | 0.00 | 0.00 | 82 | 1014.7 |
| 20260508142515 | 28 | 0 | 0.0 | 6.4 | 0.00 | 0.00 | 0.00 | 82 | 1014.7 |
| 20260508142016 | 28 | 285 | 1.6 | 6.4 | 0.00 | 0.00 | 0.00 | 84 | 1014.8 |
| 20260508141535 | 28 | 146 | 1.6 | 3.2 | 0.00 | 0.00 | 0.00 | 84 | 1014.8 |
| 20260508141015 | 28 | 157 | 0.0 | 4.8 | 0.00 | 0.00 | 0.00 | 84 | 1014.8 |
| 20260508140516 | 27 | 0 | 0.0 | 4.8 | 0.00 | 0.00 | 0.00 | 87 | 1014.6 |
| 20260508140042 | 27 | 329 | 0.0 | 6.4 | 0.00 | 0.00 | 0.00 | 87 | 1014.6 |
| 20260508135518 | 27 | 187 | 0.0 | 6.4 | 0.00 | 0.00 | 0.00 | 88 | 1014.8 |
| 20260508135016 | 27 | 136 | 0.0 | 1.6 | 0.00 | 0.00 | 0.00 | 88 | 1014.8 |
| 20260508134533 | 26 | 245 | 0.0 | 1.6 | 0.00 | 0.00 | 0.00 | 89 | 1014.8 |
| 20260508134016 | 26 | 0 | 0.0 | 3.2 | 0.00 | 0.00 | 0.00 | 89 | 1014.7 |
| 20260508133514 | 26 | 0 | 0.0 | 4.8 | 0.00 | 0.00 | 0.00 | 89 | 1014.8 |
| 20260508133035 | 26 | 0 | 0.0 | 4.8 | 0.00 | 0.00 | 0.00 | 89 | 1014.8 |
| 20260508132517 | 26 | 159 | 0.0 | 4.8 | 0.00 | 0.00 | 0.00 | 89 | 1014.7 |
| 20260508132016 | 26 | 0 | 0.0 | 3.2 | 0.00 | 0.00 | 0.00 | 92 | 1014.5 |
| 20260508131534 | 26 | 0 | 0.0 | 3.2 | 0.00 | 0.00 | 0.00 | 92 | 1014.4 |
| 20260508131020 | 26 | 0 | 0.0 | 3.2 | 0.00 | 0.00 | 0.00 | 93 | 1014.5 |
| 20260508130514 | 25 | 136 | 0.0 | 1.6 | 0.00 | 0.00 | 0.00 | 94 | 1014.3 |
| 20260508130031 | 25 | 0 | 0.0 | 1.6 | 0.00 | 0.00 | 0.00 | 95 | 1014.4 |
| 20260508125514 | 25 | 0 | 0.0 | 1.6 | 0.00 | 0.00 | 0.00 | 96 | 1014.4 |
| 20260508125013 | 25 | 0 | 0.0 | 1.6 | 0.00 | 0.00 | 0.00 | 97 | 1014.4 |
| 20260508124530 | 24 | 220 | 0.0 | 1.6 | 0.00 | 0.00 | 0.00 | 97 | 1014.4 |
| 20260508124014 | 24 | 0 | 0.0 | 1.6 | 0.00 | 0.00 | 0.00 | 98 | 1014.4 |
| 20260508123514 | 24 | 0 | 0.0 | 3.2 | 0.00 | 0.00 | 0.00 | 99 | 1014.2 |
| 20260508123034 | 23 | 0 | 0.0 | 3.2 | 0.00 | 0.00 | 0.00 | 100 | 1014.1 |
| 20260508122511 | 23 | 0 | 0.0 | 3.2 | 0.00 | 0.00 | 0.00 | 100 | 1014.1 |
| 20260508122015 | 23 | 0 | 0.0 | 0.0 | 0.00 | 0.00 | 0.00 | 100 | 1014.1 |
| 20260508121533 | 23 | 0 | 0.0 | 0.0 | 0.00 | 0.00 | 0.00 | 100 | 1014.0 |
| 20260508121014 | 22 | 0 | 0.0 | 1.6 | 0.00 | 0.00 | 0.00 | 100 | 1014.0 |
| 20260508120513 | 22 | 0 | 0.0 | 1.6 | 0.00 | 0.00 | 0.00 | 100 | 1014.0 |
| 20260508120031 | 22 | 0 | 0.0 | 1.6 | 0.00 | 0.00 | 0.00 | 100 | 1013.9 |
| 20260508115514 | 22 | 0 | 0.0 | 0.0 | 0.00 | 0.00 | 0.00 | 100 | 1013.9 |
| 20260508115013 | 22 | 0 | 0.0 | 0.0 | 0.00 | 0.00 | 0.00 | 100 | 1013.9 |
| 20260508114535 | 21 | 0 | 0.0 | 0.0 | 0.00 | 0.00 | 0.00 | 100 | 1013.9 |
| 20260508114016 | 21 | 0 | 0.0 | 0.0 | 0.00 | 0.00 | 0.00 | 100 | 1013.8 |
| 20260508113514 | 21 | 0 | 0.0 | 0.0 | 0.00 | 0.00 | 0.00 | 100 | 1013.7 |
| 20260508113045 | 21 | 0 | 0.0 | 0.0 | 0.00 | 0.00 | 0.00 | 100 | 1013.7 |
| 20260508112513 | 21 | 0 | 0.0 | 0.0 | 0.00 | 0.00 | 0.00 | 100 | 1013.6 |
| 20260508112015 | 20 | 0 | 0.0 | 0.0 | 0.00 | 0.00 | 0.00 | 100 | 1013.5 |
| 20260508111534 | 20 | 0 | 0.0 | 0.0 | 0.00 | 0.00 | 0.00 | 100 | 1013.6 |
| 20260508111012 | 20 | 0 | 0.0 | 0.0 | 0.00 | 0.00 | 0.00 | 100 | 1013.5 |
| 20260508110515 | 20 | 0 | 0.0 | 0.0 | 0.00 | 0.00 | 0.00 | 100 | 1013.4 |
| 20260508110032 | 20 | 0 | 0.0 | 0.0 | 0.00 | 0.00 | 0.00 | 100 | 1013.4 |
| 20260508105514 | 20 | 0 | 0.0 | 0.0 | 0.00 | 0.00 | 0.00 | 100 | 1013.2 |
| 20260508105015 | 20 | 0 | 0.0 | 0.0 | 0.00 | 0.00 | 0.00 | 100 | 1013.2 |
| 20260508104537 | 20 | 0 | 0.0 | 0.0 | 0.00 | 0.00 | 0.00 | 100 | 1013.1 |
| 20260508104017 | 20 | 0 | 0.0 | 0.0 | 0.00 | 0.00 | 0.00 | 100 | 1013.0 |
| 20260508103512 | 20 | 0 | 0.0 | 0.0 | 0.00 | 0.00 | 0.00 | 100 | 1013.1 |
| 20260508103032 | 20 | 0 | 0.0 | 0.0 | 0.00 | 0.00 | 0.00 | 100 | 1013.0 |
| 20260508102521 | 20 | 0 | 0.0 | 0.0 | 0.00 | 0.00 | 0.00 | 100 | 1013.0 |
| 20260508102013 | 20 | 0 | 0.0 | 0.0 | 0.00 | 0.00 | 0.00 | 100 | 1012.9 |
| 20260508101537 | 20 | 0 | 0.0 | 0.0 | 0.00 | 0.00 | 0.00 | 100 | 1012.8 |
| 20260508101012 | 20 | 0 | 0.0 | 0.0 | 0.00 | 0.00 | 0.00 | 100 | 1012.8 |
| 20260508100514 | 20 | 0 | 0.0 | 0.0 | 0.00 | 0.00 | 0.00 | 100 | 1012.8 |
| 20260508100036 | 20 | 0 | 0.0 | 0.0 | 0.00 | 0.00 | 0.00 | 100 | 1012.8 |
| 20260508095519 | 20 | 0 | 0.0 | 0.0 | 0.00 | 0.00 | 0.00 | 100 | 1012.7 |
| 20260508095014 | 20 | 0 | 0.0 | 0.0 | 0.00 | 0.00 | 0.00 | 100 | 1012.6 |
| 20260508094531 | 20 | 0 | 0.0 | 0.0 | 0.00 | 0.00 | 0.00 | 100 | 1012.5 |
| 20260508094015 | 20 | 0 | 0.0 | 0.0 | 0.00 | 0.00 | 0.00 | 100 | 1012.4 |
| 20260508093514 | 20 | 0 | 0.0 | 0.0 | 0.00 | 0.00 | 0.00 | 100 | 1012.4 |
| 20260508093033 | 20 | 0 | 0.0 | 0.0 | 0.00 | 0.00 | 0.00 | 100 | 1012.4 |
| 20260508092512 | 20 | 0 | 0.0 | 0.0 | 0.00 | 0.00 | 0.00 | 100 | 1012.5 |
| 20260508092014 | 20 | 0 | 0.0 | 0.0 | 0.00 | 0.00 | 0.00 | 100 | 1012.4 |
| 20260508091534 | 20 | 0 | 0.0 | 0.0 | 0.00 | 0.00 | 0.00 | 99 | 1012.4 |
| 20260508091020 | 20 | 0 | 0.0 | 0.0 | 0.00 | 0.00 | 0.00 | 100 | 1012.4 |
| 20260508090517 | 20 | 0 | 0.0 | 0.0 | 0.00 | 0.00 | 0.00 | 100 | 1012.4 |
| 20260508090041 | 20 | 0 | 0.0 | 0.0 | 0.00 | 0.00 | 0.00 | 99 | 1012.4 |
| 20260508085512 | 20 | 0 | 0.0 | 0.0 | 0.00 | 0.00 | 0.00 | 100 | 1012.3 |
| 20260508085012 | 20 | 0 | 0.0 | 0.0 | 0.00 | 0.00 | 0.00 | 100 | 1012.3 |
| 20260508084530 | 20 | 0 | 0.0 | 0.0 | 0.00 | 0.00 | 0.00 | 99 | 1012.3 |
| 20260508084015 | 20 | 0 | 0.0 | 0.0 | 0.00 | 0.00 | 0.00 | 100 | 1012.2 |
| 20260508083511 | 20 | 0 | 0.0 | 0.0 | 0.00 | 0.00 | 0.00 | 99 | 1012.3 |
| 20260508083038 | 20 | 0 | 0.0 | 0.0 | 0.00 | 0.00 | 0.00 | 99 | 1012.2 |
| 20260508082520 | 20 | 0 | 0.0 | 0.0 | 0.00 | 0.00 | 0.00 | 99 | 1012.2 |
| 20260508082013 | 21 | 0 | 0.0 | 0.0 | 0.00 | 0.00 | 0.00 | 99 | 1012.3 |
| 20260508081535 | 21 | 0 | 0.0 | 0.0 | 0.00 | 0.00 | 0.00 | 99 | 1012.3 |
| 20260508081014 | 21 | 0 | 0.0 | 0.0 | 0.00 | 0.00 | 0.00 | 99 | 1012.2 |
| 20260508080514 | 21 | 0 | 0.0 | 0.0 | 0.00 | 0.00 | 0.00 | 99 | 1012.2 |
| 20260508080030 | 21 | 0 | 0.0 | 0.0 | 0.00 | 0.00 | 0.00 | 99 | 1012.2 |
| 20260508075513 | 21 | 0 | 0.0 | 0.0 | 0.00 | 0.00 | 0.00 | 99 | 1012.3 |
| 20260508075014 | 21 | 0 | 0.0 | 0.0 | 0.00 | 0.00 | 0.00 | 99 | 1012.2 |
| 20260508074532 | 21 | 0 | 0.0 | 0.0 | 0.00 | 0.00 | 0.00 | 99 | 1012.2 |
| 20260508074014 | 21 | 0 | 0.0 | 1.6 | 0.00 | 0.00 | 0.00 | 99 | 1012.3 |
| 20260508073514 | 21 | 0 | 0.0 | 1.6 | 0.00 | 0.00 | 0.00 | 99 | 1012.3 |
| 20260508073033 | 21 | 0 | 0.0 | 1.6 | 0.00 | 0.00 | 0.00 | 99 | 1012.3 |
| 20260508072513 | 21 | 0 | 0.0 | 1.6 | 0.00 | 0.00 | 0.00 | 99 | 1012.4 |
| 20260508072015 | 21 | 0 | 0.0 | 1.6 | 0.00 | 0.00 | 0.00 | 99 | 1012.5 |
| 20260508071532 | 21 | 0 | 0.0 | 0.0 | 0.00 | 0.00 | 0.00 | 98 | 1012.6 |
| 20260508071014 | 21 | 0 | 0.0 | 0.0 | 0.00 | 0.00 | 0.00 | 98 | 1012.6 |
| 20260508070516 | 21 | 0 | 0.0 | 0.0 | 0.00 | 0.00 | 0.00 | 98 | 1012.7 |
| 20260508070031 | 21 | 0 | 0.0 | 0.0 | 0.00 | 0.00 | 0.00 | 98 | 1012.6 |
| 20260508065513 | 22 | 0 | 0.0 | 0.0 | 0.00 | 0.00 | 0.00 | 98 | 1012.6 |
| 20260508065013 | 22 | 0 | 0.0 | 1.6 | 0.00 | 0.00 | 0.00 | 98 | 1012.7 |
| 20260508064551 | 21 | 0 | 0.0 | 1.6 | 0.00 | 0.00 | 0.00 | 98 | 1012.7 |
| 20260508064014 | 21 | 0 | 0.0 | 0.0 | 0.00 | 0.00 | 0.00 | 98 | 1012.8 |
| 20260508063513 | 21 | 0 | 0.0 | 1.6 | 0.00 | 0.00 | 0.00 | 98 | 1012.8 |
| 20260508063032 | 21 | 0 | 0.0 | 1.6 | 0.00 | 0.00 | 0.00 | 98 | 1012.8 |
| 20260508062515 | 21 | 0 | 0.0 | 0.0 | 0.00 | 0.00 | 0.00 | 98 | 1012.8 |
| 20260508062014 | 21 | 0 | 0.0 | 0.0 | 0.00 | 0.00 | 0.00 | 98 | 1012.8 |
| 20260508061533 | 21 | 0 | 0.0 | 0.0 | 0.00 | 0.00 | 0.00 | 97 | 1012.8 |
| 20260508061016 | 21 | 0 | 0.0 | 0.0 | 0.00 | 0.00 | 0.00 | 96 | 1012.8 |
| 20260508060516 | 21 | 0 | 0.0 | 0.0 | 0.00 | 0.00 | 0.00 | 96 | 1012.9 |
| 20260508060036 | 21 | 0 | 0.0 | 0.0 | 0.00 | 0.00 | 0.00 | 97 | 1012.8 |
| 20260508055514 | 21 | 0 | 0.0 | 0.0 | 0.00 | 0.00 | 0.00 | 96 | 1012.8 |
| 20260508055012 | 21 | 0 | 0.0 | 0.0 | 0.00 | 0.00 | 0.00 | 95 | 1012.9 |
| 20260508054549 | 21 | 0 | 0.0 | 0.0 | 0.00 | 0.00 | 0.00 | 95 | 1013.0 |
| 20260508054014 | 21 | 0 | 0.0 | 0.0 | 0.00 | 0.00 | 0.00 | 94 | 1013.0 |
| 20260508053512 | 21 | 0 | 0.0 | 0.0 | 0.00 | 0.00 | 0.00 | 94 | 1013.0 |
| 20260508053032 | 22 | 0 | 0.0 | 0.0 | 0.00 | 0.00 | 0.00 | 94 | 1013.0 |
| 20260508052514 | 22 | 0 | 0.0 | 0.0 | 0.00 | 0.00 | 0.00 | 94 | 1013.1 |
| 20260508052017 | 22 | 0 | 0.0 | 0.0 | 0.00 | 0.00 | 0.00 | 93 | 1013.1 |
| 20260508051533 | 22 | 0 | 0.0 | 0.0 | 0.00 | 0.00 | 0.00 | 93 | 1013.1 |
| 20260508051013 | 22 | 0 | 0.0 | 0.0 | 0.00 | 0.00 | 0.00 | 93 | 1013.0 |
| 20260508050515 | 22 | 0 | 0.0 | 0.0 | 0.00 | 0.00 | 0.00 | 93 | 1013.1 |
| 20260508050037 | 22 | 0 | 0.0 | 0.0 | 0.00 | 0.00 | 0.00 | 92 | 1013.1 |
| 20260508045513 | 22 | 0 | 0.0 | 0.0 | 0.00 | 0.00 | 0.00 | 92 | 1013.1 |
| 20260508045014 | 22 | 0 | 0.0 | 0.0 | 0.00 | 0.00 | 0.00 | 91 | 1013.0 |
| 20260508044531 | 22 | 0 | 0.0 | 0.0 | 0.00 | 0.00 | 0.00 | 91 | 1012.9 |
| 20260508044015 | 22 | 0 | 0.0 | 0.0 | 0.00 | 0.00 | 0.00 | 91 | 1013.1 |
| 20260508043514 | 22 | 0 | 0.0 | 3.2 | 0.00 | 0.00 | 0.00 | 90 | 1013.0 |
| 20260508043042 | 22 | 0 | 0.0 | 3.2 | 0.00 | 0.00 | 0.00 | 90 | 1013.1 |
| 20260508042514 | 22 | 200 | 0.0 | 0.0 | 0.00 | 0.00 | 0.00 | 90 | 1013.0 |
| 20260508042012 | 22 | 0 | 0.0 | 0.0 | 0.00 | 0.00 | 0.00 | 89 | 1013.1 |
| 20260508041534 | 22 | 0 | 0.0 | 0.0 | 0.00 | 0.00 | 0.00 | 88 | 1013.1 |
| 20260508041013 | 23 | 0 | 0.0 | 0.0 | 0.00 | 0.00 | 0.00 | 88 | 1013.1 |
| 20260508040516 | 23 | 0 | 0.0 | 0.0 | 0.00 | 0.00 | 0.00 | 88 | 1013.1 |
| 20260508040033 | 23 | 0 | 0.0 | 0.0 | 0.00 | 0.00 | 0.00 | 87 | 1013.2 |
| 20260508035517 | 23 | 0 | 0.0 | 3.2 | 0.00 | 0.00 | 0.00 | 87 | 1013.2 |
| 20260508035016 | 23 | 0 | 0.0 | 3.2 | 0.00 | 0.00 | 0.00 | 86 | 1013.2 |
| 20260508034533 | 23 | 0 | 0.0 | 3.2 | 0.00 | 0.00 | 0.00 | 86 | 1013.1 |
| 20260508034015 | 23 | 0 | 0.0 | 3.2 | 0.00 | 0.00 | 0.00 | 85 | 1013.1 |
| 20260508033515 | 23 | 0 | 0.0 | 3.2 | 0.00 | 0.00 | 0.00 | 85 | 1013.2 |
| 20260508033035 | 23 | 232 | 0.0 | 3.2 | 0.00 | 0.00 | 0.00 | 85 | 1013.2 |
| 20260508032514 | 23 | 0 | 0.0 | 1.6 | 0.00 | 0.00 | 0.00 | 85 | 1013.1 |